Theta_e
292 292 292 292 293 293 293 293 293 293 293 292 292 292 292 293 294 294 294 294 293 293 293 293 295 296 296 295 294 292 292 291 290 289 288 288 288 289 289 290 290 290 290 290 289 289 288 288 288 288 289 290 293 297 298 298 299 299 299 299 298 298 297 296 295 295 295 295 295 295 295 295 295 295
291 291 292 292 292 292 292 292 292 293 293 293 292 292 291 292 292 293 293 294 293 293 294 294 295 296 296 296 295 294 293 293 291 289 289 288 288 288 289 289 290 289 288 288 288 288 288 288 288 287 288 287 289 294 296 296 296 297 297 297 297 296 295 295 295 294 294 294 294 294 295 295 295 295
289 290 290 291 291 291 292 292 292 292 292 292 292 292 291 291 291 292 292 293 293 293 294 295 295 296 296 296 296 295 294 293 292 290 289 288 288 289 289 289 289 288 287 287 287 288 288 287 287 287 288 287 287 292 295 295 295 296 295 295 295 294 294 294 294 294 293 293 294 294 294 294 294 294
286 287 288 289 290 291 291 291 291 291 291 291 291 291 291 291 291 291 291 291 292 293 293 294 295 295 296 296 295 294 294 294 292 290 290 289 289 289 289 289 289 288 287 287 287 287 287 287 287 287 287 287 286 290 294 294 294 294 293 293 293 293 293 294 294 293 293 293 293 293 293 294 294 294
285 285 285 286 287 288 289 290 290 291 291 291 291 291 290 290 290 290 290 290 291 292 292 293 294 294 295 295 294 294 293 294 293 291 290 290 289 289 289 289 289 289 288 287 287 287 287 287 287 287 287 287 286 288 291 293 293 293 293 292 292 293 292 293 293 292 292 292 292 292 292 293 293 293
285 285 285 285 285 286 287 288 289 290 290 290 290 290 290 290 290 290 289 290 290 290 291 292 293 293 293 293 293 293 293 294 294 293 291 290 290 289 289 289 289 289 289 288 286 286 286 286 286 287 287 287 286 286 289 291 292 292 292 292 291 291 291 291 291 291 291 290 290 289 290 292 292 292
284 284 284 285 285 285 285 286 287 288 289 289 290 290 290 290 290 290 289 289 289 290 290 291 292 292 292 292 293 293 293 293 293 293 292 292 291 290 289 289 289 289 289 288 286 285 286 286 286 286 286 286 286 286 287 289 290 291 291 291 290 290 290 291 290 290 290 290 288 288 290 291 291 291
284 284 284 284 285 285 285 285 285 286 287 288 289 289 289 289 289 289 289 289 289 289 289 290 291 291 292 292 293 292 292 292 292 292 292 291 290 290 289 289 289 289 289 288 287 285 285 286 286 285 286 286 286 286 286 288 290 290 289 290 290 288 290 291 291 290 290 289 288 288 290 290 290 290
283 284 284 284 284 285 285 285 285 286 286 287 288 288 289 289 289 289 289 289 289 288 288 289 289 290 291 292 292 291 290 290 290 290 290 289 289 289 288 289 289 289 289 288 287 285 285 285 285 285 286 286 285 286 285 287 290 290 288 289 289 287 287 289 290 290 289 287 287 289 289 289 288 289
282 283 283 283 284 284 285 285 285 285 286 286 286 287 288 288 288 288 288 288 288 288 288 288 288 289 290 290 291 290 290 289 289 288 288 288 288 287 287 287 288 288 289 288 287 286 285 285 285 286 287 285 285 286 285 286 289 289 288 288 288 286 286 288 288 287 287 286 287 288 288 288 288 288
282 282 282 283 283 284 284 285 285 285 285 286 286 286 287 287 288 288 288 288 288 288 288 288 288 288 288 289 290 290 289 289 288 288 287 286 286 286 286 286 287 288 288 288 287 286 285 285 285 287 287 285 284 285 285 285 287 288 288 287 286 285 287 287 286 285 286 285 285 285 286 287 287 287
281 282 282 282 283 283 284 284 285 285 285 285 286 286 286 287 287 288 288 288 288 288 288 288 288 288 288 288 288 289 288 287 287 287 286 286 285 285 285 286 287 287 287 287 286 285 285 285 285 287 287 285 284 285 285 285 286 288 287 286 285 285 286 286 286 285 285 284 283 284 284 285 286 287
280 281 281 282 282 283 283 284 284 284 285 285 285 285 286 286 287 287 288 288 288 288 288 288 288 288 287 287 287 287 286 286 287 287 286 286 286 285 285 285 285 286 285 285 285 284 285 285 285 286 286 285 286 286 286 286 286 287 287 286 285 285 285 285 285 285 284 284 283 283 283 283 285 286
279 280 280 281 281 282 282 283 283 284 284 285 285 285 285 286 286 287 287 288 288 288 288 288 289 288 288 287 287 286 286 287 287 287 286 286 285 285 284 284 285 285 284 284 283 283 284 284 285 285 285 285 286 286 286 286 287 287 286 286 285 285 285 285 285 284 284 283 283 283 283 283 284 284
279 279 279 280 280 281 281 282 282 283 283 284 284 285 285 285 286 286 287 287 287 288 288 288 289 289 289 288 288 287 287 287 286 286 286 285 285 285 284 285 285 285 284 283 283 283 284 284 284 285 284 284 285 286 286 286 286 286 286 286 286 285 285 285 284 284 284 283 283 283 283 283 283 283
278 278 278 279 279 279 280 281 281 282 282 283 283 284 284 285 285 285 286 287 287 287 288 288 288 289 289 289 289 288 287 287 286 286 286 285 285 285 285 285 286 286 285 283 283 283 283 284 284 285 284 284 285 285 286 286 286 286 286 286 286 285 285 284 284 284 284 283 283 283 282 282 283 283
276 277 277 277 278 278 279 279 280 281 281 282 282 283 283 284 284 285 285 286 287 287 288 288 288 288 289 289 289 288 288 287 286 286 286 285 285 285 286 286 286 286 285 284 283 283 283 283 284 284 284 284 284 285 285 286 286 286 286 286 286 285 285 284 284 284 283 283 283 283 282 282 283 283
275 275 275 276 276 276 277 278 278 279 280 280 281 282 282 283 284 284 285 285 286 287 288 288 288 288 288 288 289 289 288 288 287 286 286 286 285 285 286 286 286 286 286 286 284 284 284 283 283 284 284 284 284 284 285 285 285 285 285 286 286 285 285 284 284 284 283 283 283 282 282 282 282 282
273 273 273 274 274 274 275 275 276 277 278 279 280 281 282 282 283 283 284 285 285 286 287 288 288 288 288 288 288 289 289 288 288 287 287 287 286 286 286 286 286 286 286 286 285 285 285 284 283 283 284 284 284 284 284 285 285 286 286 286 285 285 285 284 284 283 283 283 283 282 282 282 282 282
271 271 272 272 273 273 273 274 275 276 277 279 280 280 281 282 283 283 283 284 284 285 285 286 287 287 287 288 288 289 289 288 288 287 287 287 287 286 286 286 286 285 284 284 285 285 285 284 283 283 283 283 283 284 284 284 284 285 286 286 285 285 285 284 284 283 283 282 282 282 281 281 282 281
270 270 271 271 272 272 273 273 274 275 276 277 278 279 280 281 282 282 283 283 284 284 284 285 285 286 286 287 288 288 289 289 288 287 286 286 286 286 286 286 286 285 284 284 284 285 285 284 283 283 283 283 283 283 283 283 283 285 287 287 286 285 284 284 283 283 282 282 282 282 281 281 282 281
270 270 271 271 272 272 272 273 274 275 276 276 277 278 279 279 280 281 282 282 283 284 284 285 285 285 286 286 287 288 288 289 289 287 286 286 286 286 286 286 286 286 285 284 283 284 284 284 283 283 282 282 282 282 282 282 282 284 287 287 287 285 284 283 283 283 282 281 282 282 281 281 281 281
269 270 270 270 271 271 272 273 274 275 275 276 276 277 277 278 279 280 281 282 282 283 284 284 284 285 285 286 287 287 288 288 289 289 288 287 287 286 286 286 286 286 286 285 283 283 284 283 282 282 282 281 281 281 281 281 281 283 286 287 287 285 284 283 283 282 281 281 282 283 281 281 281 280
269 269 269 270 270 271 272 273 274 274 275 275 276 276 277 277 278 278 279 281 282 283 283 284 284 284 285 285 286 286 287 288 288 289 289 288 287 287 286 286 286 287 287 286 284 283 284 283 282 282 282 283 282 280 280 281 281 282 284 286 286 285 284 284 283 283 282 282 283 284 281 280 280 280
269 269 269 270 270 271 271 272 272 273 273 274 275 275 276 277 277 277 278 278 279 281 283 284 284 284 284 285 285 285 286 287 287 288 289 288 287 287 287 287 286 287 287 286 285 284 284 283 282 282 282 282 282 280 279 280 280 281 283 285 285 285 285 284 284 284 283 283 284 284 281 280 280 280
270 270 270 270 270 270 271 271 272 272 273 273 274 274 275 276 277 277 278 278 278 279 281 283 284 284 284 284 285 285 285 286 287 287 288 288 288 287 287 287 287 287 287 286 285 285 284 283 283 282 281 281 281 280 279 279 279 280 282 284 284 284 284 284 284 284 284 284 284 283 281 280 280 280
270 270 270 270 270 270 271 272 272 273 273 273 274 274 275 276 277 277 278 279 279 279 280 282 283 284 284 284 284 285 285 285 286 287 287 288 288 288 287 287 286 287 287 286 286 285 285 284 283 283 282 282 281 280 279 279 279 279 281 283 283 284 284 284 284 283 283 283 283 282 281 281 281 280
270 270 270 270 271 271 272 273 273 274 274 274 274 274 275 275 276 277 277 278 279 280 280 281 283 284 284 284 284 285 285 285 286 286 287 287 288 288 287 287 286 286 286 286 286 285 285 284 284 283 283 283 281 280 280 280 279 279 280 281 282 283 283 284 283 283 283 283 282 282 281 281 281 281
271 271 271 272 272 273 273 273 273 273 273 273 273 274 274 274 275 276 276 277 279 280 281 281 283 284 284 284 284 284 285 285 285 286 286 286 287 287 287 287 287 286 286 285 285 285 285 285 284 283 283 283 282 282 281 280 279 279 279 280 280 281 282 282 283 282 282 282 281 280 280 280 280 280
271 272 272 272 272 272 272 272 272 272 272 273 273 274 274 274 275 276 276 277 278 279 281 281 282 283 284 284 284 285 285 285 285 285 286 286 286 287 287 287 286 286 285 285 285 285 285 284 284 283 283 283 282 282 282 281 279 279 279 279 280 280 280 281 282 281 281 280 280 279 279 279 279 279
270 271 271 271 272 272 272 272 273 273 273 273 273 274 274 274 275 275 276 276 277 279 281 281 282 283 284 285 285 284 285 285 285 285 285 286 286 286 286 286 286 285 285 284 284 284 284 284 284 283 283 283 282 282 283 281 279 278 278 279 279 279 279 279 280 280 280 279 278 278 278 277 277 277
270 270 270 270 270 271 271 271 272 272 272 273 273 273 274 274 274 275 275 276 277 279 280 281 282 283 284 285 285 285 285 285 285 285 285 285 285 285 285 285 285 285 283 283 283 283 284 284 283 283 283 283 283 282 282 281 280 279 278 278 278 279 278 278 278 278 278 278 277 276 276 276 276 277
272 272 272 271 271 271 271 271 272 272 273 273 273 274 274 274 274 275 276 277 278 279 281 282 282 283 285 285 285 285 285 285 285 285 285 285 285 284 283 284 285 284 282 281 281 282 283 283 283 282 282 282 283 282 282 281 280 279 278 278 278 278 277 277 277 277 277 277 276 275 274 275 275 275
274 274 274 273 273 273 273 273 273 273 273 273 274 274 274 274 275 275 276 277 278 279 281 282 282 283 284 285 285 285 285 285 285 285 285 285 284 283 282 282 283 283 282 280 280 280 281 281 281 281 281 281 282 282 282 282 280 279 279 278 278 277 277 276 276 276 276 276 275 274 274 274 274 274
274 274 274 273 273 273 273 273 273 274 274 274 274 274 274 274 275 275 276 276 277 279 281 282 282 283 283 284 285 285 285 285 285 285 285 284 284 283 281 281 282 282 281 280 279 278 279 280 279 279 279 279 279 280 280 281 281 279 278 278 278 277 276 276 275 275 275 275 275 275 274 273 273 274
273 273 272 272 273 273 273 273 273 274 274 274 274 274 274 274 274 275 275 276 277 279 281 282 283 283 283 284 284 285 285 285 284 284 284 284 283 282 281 281 282 281 280 279 278 277 277 278 278 278 278 278 278 279 278 278 279 279 278 277 277 276 276 275 275 275 275 274 275 275 274 274 274 274
272 272 272 272 272 273 273 273 274 274 274 274 274 274 274 274 274 275 275 276 277 278 280 281 282 283 283 284 284 285 284 284 284 283 283 283 282 282 281 281 281 280 279 278 277 276 276 277 278 278 278 278 278 279 278 276 277 278 278 277 276 275 275 275 274 274 274 274 274 274 275 274 274 274
271 271 272 272 272 273 273 273 274 274 274 274 274 274 274 274 274 275 275 276 277 278 280 281 282 283 283 284 284 284 284 283 283 282 282 282 281 281 280 280 280 279 278 277 276 276 276 277 277 278 279 279 279 279 278 275 274 276 277 277 276 275 274 274 274 274 274 274 273 274 274 274 274 273
270 270 271 272 272 272 272 273 274 274 275 275 275 274 274 274 275 275 276 277 278 278 280 281 282 283 284 284 284 284 283 283 282 282 281 281 280 280 280 280 279 277 276 276 275 275 275 276 277 278 279 279 279 280 278 275 273 274 276 276 276 276 275 274 274 273 273 273 273 273 273 273 273 273
268 269 270 270 271 271 272 272 273 274 275 275 275 274 274 274 275 275 276 277 278 279 280 281 282 283 283 283 283 283 282 282 282 281 280 280 280 280 279 279 278 276 275 275 274 274 274 275 276 277 278 279 279 279 278 275 274 274 274 275 276 276 275 275 274 273 273 273 273 272 272 272 271 271
267 267 268 268 269 269 270 271 272 274 275 275 275 275 275 275 275 275 276 277 278 279 280 281 282 282 283 283 283 282 282 281 281 280 280 279 279 279 279 278 277 275 275 274 274 274 274 275 275 276 277 277 278 278 276 274 273 273 273 274 274 275 275 275 275 274 273 272 272 271 271 271 270 270
265 266 266 267 267 268 269 270 272 274 276 276 276 275 275 276 276 277 278 279 279 280 281 281 282 282 282 282 282 282 281 280 280 280 279 279 278 278 278 277 276 275 274 274 274 274 274 274 274 275 276 276 276 276 276 274 273 273 273 273 273 273 273 274 274 274 274 273 273 272 271 270 270 269
263 264 265 266 266 267 268 270 272 273 275 276 276 276 276 277 277 278 279 279 280 280 281 281 281 282 282 282 282 281 281 280 280 279 278 278 277 277 277 276 275 275 275 274 274 273 273 273 273 274 274 275 275 276 275 274 273 272 272 272 272 272 272 272 272 273 273 273 273 272 272 271 271 270
263 263 264 265 266 267 268 270 271 272 273 274 276 277 277 278 278 279 279 280 280 280 280 281 281 281 281 281 281 280 280 280 279 278 278 277 277 277 276 276 275 274 274 273 273 272 272 272 272 273 273 273 274 275 274 273 272 272 272 272 272 272 272 272 272 272 271 271 271 271 271 271 271 271
262 263 264 265 265 266 267 269 270 270 271 272 273 275 276 277 278 278 279 279 279 280 280 280 280 280 280 280 280 279 279 278 278 277 277 276 276 276 276 275 274 274 273 273 272 271 271 271 271 272 272 272 273 273 273 272 272 271 271 271 271 270 271 271 271 271 271 270 270 270 270 270 270 270
Wind_Speed
22 22 22 23 25 25 24 25 25 25 27 27 28 29 26 19 11 7 9 7 8 17 25 28 30 32 36 40 43 45 45 44 43 42 42 42 42 41 40 39 38 39 39 37 35 34 33 32 32 32 32 33 29 24 23 22 21 21 21 19 19 18 17 16 15 15 14 13 12 12 12 12 11 11
23 24 24 24 25 25 25 25 25 25 25 26 27 29 30 28 20 12 10 10 13 17 23 29 30 31 34 37 40 44 45 44 45 44 44 44 44 43 41 39 38 38 38 37 36 34 34 32 31 32 32 34 32 26 23 23 21 21 21 20 19 18 17 16 16 15 15 14 13 13 13 12 12 11
24 25 26 26 26 25 25 26 26 25 25 26 27 27 29 30 30 24 14 11 16 19 21 27 30 31 34 36 38 42 44 44 45 46 46 46 46 44 42 40 39 39 39 38 37 35 34 32 31 32 32 34 33 28 24 24 23 22 22 20 19 19 17 17 17 16 15 14 14 14 14 13 12 12
25 26 27 27 27 27 27 28 27 27 26 26 26 27 28 30 31 30 22 13 16 21 23 27 30 30 33 36 38 41 43 43 45 47 47 47 46 45 44 42 41 40 40 40 39 37 35 33 32 33 34 34 34 31 26 25 24 23 23 22 21 20 19 18 18 17 16 15 14 14 14 13 13 12
28 28 28 28 27 27 28 29 29 29 28 27 27 26 27 29 30 29 26 18 17 22 26 27 28 29 31 36 39 40 41 43 44 46 47 47 47 46 46 45 43 42 41 41 40 38 36 35 33 34 34 35 35 33 29 26 25 24 23 23 22 21 21 21 20 19 18 16 16 16 15 14 14 14
30 30 30 29 28 27 28 29 29 30 29 28 29 27 26 28 29 27 28 24 19 21 25 27 28 29 30 34 38 39 41 43 43 46 48 48 48 49 48 47 45 44 43 42 41 40 38 36 35 35 35 35 35 34 31 28 27 26 24 23 24 22 22 23 22 21 19 18 19 20 19 16 15 15
31 31 31 31 30 29 29 30 29 29 30 29 30 30 28 28 28 27 28 28 24 23 25 26 28 30 31 34 37 38 41 42 43 46 48 48 49 50 49 48 47 46 44 43 42 41 39 38 37 36 36 35 35 35 34 31 29 28 27 25 24 24 23 24 24 22 20 20 21 21 19 17 17 16
33 33 34 34 33 31 30 31 30 28 29 30 30 31 30 29 29 28 27 29 30 26 25 26 27 29 31 35 37 37 38 41 43 45 46 46 48 49 48 48 48 47 45 44 43 42 40 39 38 38 37 36 36 36 35 33 30 29 30 27 25 25 24 23 24 22 21 21 21 21 20 19 19 17
35 35 36 37 35 33 32 32 32 30 29 29 29 30 31 30 29 29 27 29 31 29 28 28 26 26 30 33 35 35 36 37 39 41 43 44 45 45 45 46 47 47 45 44 44 43 42 41 40 39 39 38 37 36 36 34 30 30 32 30 26 27 27 26 25 23 22 22 21 21 21 20 20 19
36 36 37 38 37 35 34 34 34 32 31 31 30 30 31 30 29 29 28 28 29 30 31 30 27 26 29 31 33 34 35 36 37 37 38 40 41 40 40 42 45 46 46 45 45 44 44 43 42 39 39 39 38 37 38 36 32 31 33 31 28 29 29 28 27 26 25 24 23 23 22 22 21 20
36 36 37 38 38 36 36 36 36 34 33 32 32 32 31 30 28 29 30 28 27 28 29 29 27 27 28 30 33 34 34 35 37 38 35 33 35 38 39 42 44 46 48 47 47 46 45 43 42 38 36 38 40 39 40 39 36 34 34 33 32 32 29 28 28 27 25 25 25 25 24 23 22 21
37 37 37 38 38 38 38 38 38 37 35 33 33 33 31 29 28 29 29 28 27 27 27 27 27 25 25 27 30 30 27 29 34 36 32 29 32 37 40 43 44 45 47 48 47 47 45 43 42 40 37 39 41 40 40 41 39 36 36 36 36 34 32 30 29 28 25 25 25 25 24 24 23 22
39 39 39 38 38 38 38 39 40 39 38 36 36 35 33 30 29 29 29 27 26 25 25 25 25 23 22 25 26 25 27 31 31 29 30 30 31 32 34 38 42 42 42 43 44 45 45 44 42 42 42 42 41 40 41 41 40 39 38 39 38 36 35 33 31 29 26 25 25 25 25 25 24 23
41 40 40 40 40 40 39 39 40 41 41 40 40 40 37 34 32 31 29 28 27 25 23 24 24 20 20 25 27 27 31 34 29 26 30 31 28 25 24 30 39 42 40 37 39 42 44 43 43 44 46 46 43 42 43 43 43 42 41 41 40 38 36 34 33 31 28 27 26 26 26 26 25 24
41 41 41 40 41 41 41 40 40 39 40 40 41 42 41 39 37 35 33 31 29 27 24 26 25 21 22 28 28 28 31 31 30 31 32 30 26 24 20 19 26 37 41 36 34 38 41 43 45 47 48 48 46 47 48 47 46 45 44 42 41 39 38 36 34 32 30 29 28 27 27 26 25 25
41 41 42 41 41 42 42 42 41 40 40 40 40 41 42 42 42 41 40 38 35 30 27 28 28 26 27 30 28 28 29 29 31 32 31 30 31 28 25 22 22 30 40 38 32 35 40 42 45 48 50 51 50 49 50 49 48 47 45 43 42 41 39 38 36 33 31 30 29 28 28 27 26 25
42 41 41 41 42 42 41 41 41 40 41 41 40 40 41 43 44 44 46 46 44 40 35 31 32 34 32 31 29 29 29 29 31 31 31 33 33 29 30 33 28 23 30 38 35 34 40 44 46 49 51 51 50 49 49 50 49 48 47 46 44 43 41 39 37 34 32 31 30 29 29 28 27 26
41 40 39 40 42 42 41 41 42 42 43 42 41 39 39 41 43 43 45 46 47 47 43 39 40 42 39 35 35 32 29 31 34 34 34 34 34 34 36 37 30 24 31 41 35 28 37 45 44 47 49 47 48 51 51 51 51 50 50 48 46 44 43 41 38 36 34 33 32 31 30 29 28 27
39 40 41 42 43 44 44 43 41 41 41 41 41 40 40 41 42 43 44 44 45 45 45 44 46 48 45 42 41 38 33 34 37 37 39 39 38 39 38 34 31 30 36 41 34 24 31 39 41 45 47 44 46 51 52 51 52 50 49 49 48 45 43 41 39 37 36 35 33 32 31 30 29 28
36 37 38 39 41 43 44 43 39 38 39 39 40 41 41 41 41 42 44 45 46 46 45 45 47 50 50 46 45 44 38 36 36 36 37 37 36 33 29 27 31 32 32 39 39 28 24 29 38 42 42 40 44 48 49 51 52 50 48 48 49 47 44 42 40 38 37 36 34 33 32 31 30 29
33 33 33 34 36 38 39 38 36 35 36 37 39 41 42 41 40 41 42 43 45 47 48 48 49 51 53 50 49 48 44 39 36 32 30 31 32 27 18 17 25 29 30 38 43 33 23 27 35 35 33 37 43 43 44 49 50 47 45 44 45 47 45 42 40 39 37 36 35 33 33 31 30 29
33 33 32 32 33 34 35 35 35 34 34 36 37 38 39 39 40 42 43 41 42 42 44 46 49 51 53 51 49 48 46 43 39 35 33 33 31 26 20 18 21 23 29 38 41 32 26 28 31 27 22 26 36 39 38 41 44 43 40 37 39 44 44 41 40 39 37 36 34 33 33 32 30 30
32 33 33 32 32 34 35 35 35 34 34 35 37 37 36 35 38 41 41 39 39 39 40 42 45 47 50 49 47 47 47 46 43 41 40 38 33 29 28 26 18 13 22 36 40 32 26 26 29 26 16 10 19 31 34 35 39 41 40 38 38 41 42 41 40 39 38 36 34 32 33 33 31 31
34 33 33 32 31 32 34 34 34 35 34 35 36 36 34 34 38 42 41 39 38 38 39 41 43 44 46 45 44 44 45 45 44 44 44 42 39 35 32 29 23 18 22 30 37 36 28 24 28 32 24 10 8 21 31 35 38 39 40 40 40 39 40 40 38 37 37 36 33 31 33 35 34 34
34 33 32 33 32 33 36 37 38 39 38 39 39 39 37 37 40 42 42 42 42 41 40 40 41 42 43 42 41 41 41 42 43 43 44 44 43 41 38 32 28 29 29 26 33 38 31 23 25 31 28 16 8 14 24 30 35 40 40 41 41 40 40 40 38 37 36 34 31 31 34 35 35 35
34 34 35 36 36 37 38 39 39 39 39 39 40 42 42 42 43 43 42 41 41 41 40 40 38 38 39 39 39 39 39 40 41 42 43 45 45 45 45 40 34 33 33 27 29 37 34 28 29 30 26 18 12 15 19 21 28 35 37 37 39 40 40 40 38 37 37 36 34 33 35 36 35 35
35 37 38 39 38 37 38 39 39 39 39 39 39 40 42 43 44 44 42 39 37 37 39 39 37 36 36 36 36 37 39 40 41 41 42 44 45 45 46 46 43 41 38 30 28 36 37 34 33 34 32 25 14 12 15 18 24 32 35 36 37 36 37 38 38 37 39 39 36 34 34 34 33 33
38 39 39 40 39 38 38 39 40 40 41 41 41 41 42 44 44 43 41 38 36 34 34 35 36 37 37 37 36 37 39 40 40 41 41 42 43 43 43 45 45 44 40 33 30 36 40 38 36 37 38 32 21 14 14 16 23 33 36 34 34 36 37 37 37 37 38 39 38 36 35 34 33 31
40 41 41 43 43 41 41 41 40 40 40 39 39 40 41 42 42 41 39 39 37 33 32 34 36 37 37 38 38 39 39 39 38 38 37 37 38 38 39 41 43 43 40 36 33 34 40 41 38 38 37 35 30 25 20 18 23 33 36 34 33 36 39 38 37 38 39 39 39 39 38 38 37 35
42 43 43 43 43 42 42 40 39 39 38 37 38 39 40 41 40 39 40 41 38 34 33 34 36 40 40 39 39 38 36 36 36 35 34 33 32 33 33 34 36 37 38 38 36 35 38 41 39 37 36 35 34 31 26 23 23 28 35 37 34 31 36 41 41 39 40 41 40 39 39 38 37 37
43 44 43 41 41 41 40 40 40 40 39 38 37 37 38 39 39 39 41 42 41 38 37 36 38 42 42 38 37 36 34 34 35 34 33 31 30 31 31 28 28 31 34 36 35 34 37 40 39 37 36 35 33 30 27 26 25 26 30 35 33 28 33 42 41 38 41 42 40 39 38 37 36 36
42 42 41 39 37 37 37 37 38 37 37 36 36 36 36 37 38 39 41 41 42 42 41 39 39 39 37 34 34 33 32 32 33 33 33 31 30 30 29 24 22 24 26 29 32 33 35 38 38 37 38 38 35 30 26 23 26 28 29 32 34 30 32 40 42 39 40 41 38 38 37 36 37 36
35 32 31 29 28 28 30 31 31 31 33 34 34 35 36 36 36 37 37 36 38 40 38 37 36 34 32 30 31 31 29 30 31 31 31 30 29 27 26 23 22 22 23 24 28 31 33 35 36 35 36 37 35 35 31 24 23 28 30 31 33 30 30 38 42 40 40 41 37 34 34 34 35 35
31 25 23 22 22 24 25 25 26 29 31 31 30 31 34 35 34 34 34 34 36 37 34 33 32 30 28 26 25 27 27 27 29 30 30 29 27 25 23 22 22 24 24 23 25 28 31 33 32 29 30 30 29 32 36 31 27 29 32 33 34 32 31 35 40 40 41 43 38 33 31 32 33 34
26 22 21 21 23 25 25 25 28 30 30 28 28 28 30 33 34 33 31 32 33 33 31 28 28 29 28 26 24 24 25 25 26 28 28 28 27 25 25 23 22 23 24 23 24 27 29 31 30 23 19 18 17 19 28 33 32 31 31 31 32 33 31 33 38 40 40 40 38 34 30 27 29 31
23 22 22 23 24 26 26 28 31 33 31 29 29 28 28 30 34 32 29 29 31 30 28 25 24 25 27 27 26 27 27 26 26 25 25 26 25 24 24 24 23 23 24 24 25 28 28 30 31 22 12 9 9 9 15 25 31 32 32 30 29 30 32 33 35 38 39 39 38 36 32 29 29 30
23 25 25 25 26 27 29 30 32 33 33 32 31 30 28 29 33 34 32 31 31 29 28 26 24 24 26 27 26 26 27 26 24 23 23 24 23 22 21 21 21 22 23 24 26 29 29 29 30 24 13 8 9 9 9 16 25 31 34 33 31 31 33 33 32 33 36 36 36 36 33 31 30 29
23 24 24 25 26 28 31 32 32 33 35 34 31 29 27 28 32 34 32 30 28 27 27 26 24 24 26 26 25 24 23 23 23 22 22 23 22 21 20 19 20 21 22 22 25 29 30 29 29 27 18 10 10 11 8 9 16 25 32 34 33 32 33 34 31 30 31 33 33 32 31 28 28 27
24 25 25 26 29 31 33 33 33 34 36 34 29 26 25 26 28 28 27 26 26 27 27 26 25 24 24 24 23 22 21 20 20 20 21 23 23 22 22 20 19 19 19 20 22 25 27 27 28 30 26 18 15 16 15 13 17 24 30 34 36 37 38 37 34 30 29 31 30 28 25 23 22 21
25 26 26 27 30 32 33 33 34 35 35 32 27 25 25 25 24 25 25 25 25 26 26 26 24 22 21 21 22 21 20 21 21 20 21 23 23 24 24 22 21 20 18 16 18 22 25 28 30 31 28 22 17 18 20 19 17 22 26 29 34 39 41 40 37 32 30 30 30 27 24 21 19 17
25 26 28 29 30 32 32 33 34 35 34 30 26 24 25 25 25 25 27 27 26 26 26 25 23 20 18 18 20 20 19 19 20 21 22 23 23 25 26 23 20 19 16 13 16 21 26 28 28 26 23 20 16 16 16 13 10 15 21 22 24 31 35 37 37 35 32 32 31 27 22 20 18 16
24 26 28 30 31 33 33 32 32 33 32 28 24 23 23 24 24 25 26 27 27 26 25 23 22 21 19 18 20 21 20 19 20 21 22 22 21 21 22 20 19 20 18 15 18 22 23 22 23 22 21 22 22 17 9 6 9 15 20 20 19 22 25 27 30 30 30 32 32 27 21 16 13 11
27 27 29 30 32 33 33 30 29 30 30 26 23 22 23 23 23 24 24 24 24 24 24 23 21 21 20 20 20 22 22 22 21 21 22 23 21 20 20 21 21 22 21 17 17 20 20 20 23 24 22 22 21 15 9 10 15 19 21 22 22 21 20 20 21 22 23 25 27 26 22 16 9 7
31 30 30 30 32 33 32 29 28 29 28 26 24 22 20 20 22 23 24 24 23 22 22 22 20 20 20 19 19 21 21 21 21 21 22 23 23 22 21 21 20 20 19 17 18 19 20 21 23 24 21 18 17 15 14 15 17 19 21 24 25 25 25 24 22 20 19 18 16 15 15 12 8 7
31 30 30 30 31 33 31 28 27 28 27 26 26 25 22 20 20 20 21 22 21 20 20 19 19 19 18 18 18 19 19 18 19 20 20 20 20 20 18 19 19 18 18 19 20 19 20 21 20 20 18 15 14 16 19 21 21 21 22 23 24 25 26 27 26 25 23 19 15 13 11 8 5 5
Wind_Direction
312 309 307 306 303 302 299 295 292 290 284 277 271 264 257 254 258 267 266 255 245 246 242 242 248 249 248 247 244 242 242 243 242 240 239 239 238 237 236 235 234 235 236 235 234 235 235 235 236 235 232 226 220 217 218 217 214 213 212 210 209 206 205 204 201 199 197 195 194 191 191 193 191 189
316 311 307 305 303 303 302 300 297 294 290 285 278 272 265 259 253 258 272 264 249 246 243 243 247 250 251 248 245 243 242 243 242 240 239 239 239 238 237 236 235 234 236 236 235 234 234 233 232 231 229 226 221 217 218 218 215 213 211 209 207 206 205 203 201 200 198 195 195 192 190 190 189 188
322 317 312 308 305 302 299 299 299 297 294 290 284 278 271 264 258 256 263 271 259 248 246 250 251 252 253 251 246 243 242 242 241 240 239 240 240 239 237 236 236 235 236 237 237 236 235 233 230 227 225 224 221 217 216 217 214 211 209 206 205 205 206 205 203 201 200 198 196 194 192 190 188 188
323 320 317 314 310 306 302 297 295 295 294 293 288 283 276 269 264 259 256 263 266 257 255 260 259 256 255 252 247 243 242 241 241 240 240 240 239 238 237 236 235 234 235 236 237 237 235 233 229 224 223 223 222 217 215 214 212 211 209 207 206 206 205 204 202 201 201 200 197 195 193 191 191 190
319 317 315 314 312 311 307 301 298 294 291 291 288 284 279 272 267 262 256 258 270 267 261 261 261 258 253 249 246 242 240 240 239 239 240 239 238 237 236 236 234 233 233 234 236 237 236 234 231 226 223 224 224 220 216 214 212 212 212 211 209 206 204 203 202 202 202 200 199 197 194 193 194 193
313 312 309 308 309 310 307 303 301 297 293 290 286 282 279 274 270 265 258 258 266 270 265 260 259 258 251 247 246 242 239 240 240 239 238 237 237 237 236 235 234 233 232 232 234 236 236 235 233 229 226 225 225 223 220 217 214 213 214 214 212 209 206 206 207 206 204 205 206 202 197 194 196 197
306 305 303 301 302 304 302 300 299 298 294 291 286 282 278 273 271 267 261 258 261 268 270 263 257 256 251 249 248 245 242 242 239 238 238 237 237 236 234 233 234 233 231 230 232 234 235 235 235 232 229 227 227 227 224 221 218 215 214 214 213 210 208 209 212 211 206 207 210 205 197 196 198 198
301 300 297 296 296 296 294 293 293 293 292 290 286 283 279 274 271 268 263 259 259 264 270 265 258 256 254 254 252 247 241 238 235 235 235 235 234 234 232 231 232 232 231 230 231 232 233 233 234 232 231 229 228 228 227 224 220 217 217 216 212 211 209 209 210 210 208 209 208 203 198 200 202 201
296 295 293 292 293 291 288 287 287 287 287 286 284 281 279 277 274 270 264 260 258 259 263 265 263 257 254 254 252 245 237 232 231 232 233 232 232 232 231 230 230 230 230 230 230 232 232 234 234 232 231 230 227 227 229 226 220 218 220 217 213 214 214 212 210 211 214 214 207 202 202 205 206 204
293 291 290 289 288 286 283 282 283 283 282 281 279 278 278 277 275 272 267 262 258 256 259 264 264 257 252 249 248 245 238 230 227 228 230 231 230 229 229 229 229 229 229 228 228 228 230 232 232 231 229 229 228 227 229 228 222 220 221 217 215 218 217 215 216 219 221 218 210 205 207 208 208 208
292 289 287 287 285 282 280 279 279 279 279 277 276 275 276 275 273 270 268 265 260 256 258 260 260 258 253 247 246 247 240 232 229 225 222 224 226 226 227 228 228 228 228 228 227 227 228 229 229 228 227 229 229 228 228 229 225 222 221 220 220 220 217 216 220 223 223 220 215 212 211 211 211 210
292 289 287 285 283 280 278 277 276 276 275 274 274 273 272 271 269 267 266 264 260 257 258 258 258 257 253 245 242 241 232 225 227 225 218 218 221 221 225 227 227 227 227 225 224 224 225 226 226 226 226 229 229 227 226 228 226 221 221 224 224 222 219 219 222 224 223 220 218 217 215 215 214 211
291 289 288 286 283 281 278 276 275 274 272 271 270 271 270 268 266 264 263 261 259 257 257 258 257 253 249 241 234 229 222 221 226 224 217 221 223 220 223 228 228 227 226 224 223 221 221 222 223 224 225 226 225 223 224 225 223 221 223 225 225 223 222 222 223 224 223 221 219 218 218 218 216 212
289 288 287 286 285 284 282 279 276 274 273 270 268 268 268 265 264 263 261 258 256 255 255 256 255 250 248 243 232 228 229 228 228 222 215 219 221 214 220 232 231 227 224 222 223 222 220 219 221 222 224 225 222 220 220 220 220 221 224 225 225 225 224 223 224 223 222 221 220 218 219 221 220 215
288 287 286 285 285 285 284 283 281 278 275 272 269 268 267 265 262 259 258 257 254 252 252 255 255 250 250 249 239 233 234 230 225 223 219 216 213 206 211 229 231 226 221 217 221 225 221 219 220 222 224 224 222 220 220 219 220 222 223 223 223 225 225 223 223 223 221 220 218 217 219 222 222 218
287 286 286 285 284 283 283 282 282 281 279 276 273 271 269 266 263 259 257 256 253 250 250 252 253 249 250 253 247 237 233 228 224 225 222 217 214 211 214 221 226 225 217 210 216 226 224 219 221 224 224 224 223 222 221 220 221 222 222 222 223 224 224 224 223 222 220 219 217 217 219 221 221 219
286 286 287 287 285 283 282 282 281 281 281 281 279 275 271 268 265 262 259 256 254 251 249 249 252 250 250 253 251 244 236 227 222 221 222 222 219 218 222 225 226 224 211 204 210 225 225 219 220 224 225 224 223 222 222 221 221 222 222 223 224 223 223 223 223 221 219 218 216 216 218 220 220 219
287 286 286 286 285 284 283 282 281 282 282 283 281 278 273 269 265 263 260 257 255 252 249 248 251 252 251 251 253 252 243 232 225 221 221 223 222 223 229 231 229 228 219 209 207 222 226 218 217 224 225 222 222 223 222 221 221 222 222 223 223 223 222 222 222 220 218 216 216 215 217 218 218 218
287 286 285 284 283 283 283 282 281 282 282 282 280 277 273 270 266 263 260 258 255 253 250 248 250 252 252 251 252 253 248 241 237 232 229 229 227 227 233 235 230 228 224 213 204 219 228 215 213 223 224 220 222 223 222 221 221 220 221 222 222 221 220 221 221 219 218 216 215 215 215 216 216 217
287 286 286 285 284 283 283 282 281 281 281 281 280 278 276 272 268 263 260 259 257 256 254 252 252 254 254 252 251 251 248 245 243 238 234 231 227 225 229 232 228 225 220 211 207 219 230 212 211 222 222 217 221 223 221 221 220 218 218 220 221 219 218 219 220 218 217 216 214 214 213 213 214 215
289 288 287 287 287 286 285 285 284 282 280 279 278 278 277 276 273 269 264 261 259 258 257 256 255 257 257 255 253 252 249 246 243 235 228 225 222 220 224 230 229 224 218 211 209 216 227 214 211 218 218 216 220 222 221 220 218 216 216 215 216 217 217 218 218 217 216 215 213 212 211 211 211 213
289 288 288 288 288 288 288 288 288 286 282 279 277 276 276 276 274 271 268 265 262 259 258 257 256 256 256 255 254 252 250 247 241 233 228 226 223 220 223 230 230 225 223 217 209 212 226 218 206 205 207 213 219 220 221 220 216 214 213 211 211 215 215 214 214 215 215 213 211 210 209 209 208 208
290 290 290 290 289 288 288 288 288 287 283 278 274 272 273 274 272 270 270 269 266 261 257 255 254 254 254 253 252 250 249 247 241 235 233 230 225 222 227 230 227 225 231 222 207 206 221 214 197 192 188 198 221 219 217 218 214 211 209 207 208 211 211 210 212 213 214 212 209 207 208 208 205 205
288 288 289 289 289 290 290 290 290 289 286 282 278 272 267 265 266 270 272 272 271 266 259 254 252 252 253 252 250 249 247 246 242 237 235 232 227 226 229 229 225 228 237 222 203 204 216 209 196 197 196 191 213 210 210 213 211 207 206 205 205 205 204 205 208 210 211 210 206 204 207 209 206 206
283 285 286 288 288 289 289 289 289 287 284 283 281 277 270 266 266 269 270 270 271 270 266 259 253 250 250 250 249 247 245 244 241 238 235 233 229 228 229 228 227 232 239 227 206 205 210 204 197 199 202 208 197 182 195 206 207 204 204 204 203 200 198 199 202 204 205 205 203 204 208 209 208 210
283 284 285 285 285 285 285 285 285 285 283 281 278 276 274 273 271 270 267 266 266 266 266 262 254 248 246 245 245 244 242 242 240 237 235 234 231 229 230 229 229 232 236 231 214 207 207 205 201 196 197 207 197 169 176 194 203 203 202 202 202 199 196 197 198 199 200 200 200 203 207 208 209 212
284 285 284 283 283 281 281 282 282 282 282 280 277 276 275 274 274 273 271 267 261 258 259 260 255 247 242 240 240 240 239 239 239 236 236 235 232 231 231 231 232 235 236 233 221 211 208 209 207 202 200 200 190 170 175 185 192 196 198 201 201 197 196 197 197 197 198 198 199 201 203 204 206 210
284 284 282 281 279 279 280 282 283 284 283 282 280 279 279 277 276 276 276 272 264 256 252 254 253 247 241 237 236 236 237 238 238 236 236 236 234 233 233 232 233 235 236 235 228 217 212 211 210 208 206 201 191 188 192 187 184 188 191 194 196 196 197 198 199 198 197 197 198 197 197 197 197 201
281 281 281 282 283 285 287 288 288 287 285 283 281 280 279 277 275 273 274 275 271 260 250 250 251 248 243 238 236 236 236 237 237 235 234 236 235 234 234 234 234 234 233 234 231 221 214 214 212 209 207 205 202 201 196 185 185 187 186 185 190 196 198 198 199 199 197 197 198 197 196 196 195 196
278 278 280 283 285 286 287 287 285 282 280 279 279 278 277 276 273 271 272 273 272 265 255 251 251 250 246 239 236 236 234 232 232 232 230 231 231 230 230 231 231 231 230 230 230 224 217 215 213 209 205 205 208 208 201 189 185 187 188 187 186 191 197 199 199 199 197 197 197 197 198 198 198 199
275 275 275 276 275 276 279 280 279 278 277 277 276 275 275 276 275 274 273 272 270 267 259 253 252 252 247 239 232 230 229 227 228 228 226 226 227 225 224 225 227 226 224 225 226 223 218 215 212 209 205 204 208 210 206 196 187 185 190 192 188 187 194 197 197 198 198 197 195 196 198 199 199 201
274 272 271 269 267 268 270 272 273 273 272 272 272 272 273 275 274 275 276 273 272 271 262 252 250 251 246 235 227 225 224 224 225 225 223 223 224 221 217 219 222 220 218 219 219 217 215 213 211 210 208 207 207 204 199 195 192 189 190 193 195 195 194 192 193 196 197 195 194 195 198 199 199 201
282 277 273 269 266 265 266 268 270 272 271 271 270 270 272 272 272 272 273 272 276 276 262 246 244 248 244 233 226 222 221 222 224 223 221 221 221 216 211 213 219 216 211 214 214 211 209 208 208 210 210 209 209 203 194 191 194 193 192 192 195 198 197 193 193 193 192 191 191 192 195 198 200 201
299 295 289 284 280 278 276 275 276 276 275 272 268 267 269 269 269 270 271 274 281 282 265 243 238 244 242 234 225 218 216 219 221 220 220 219 216 209 205 210 218 215 210 210 209 204 201 201 201 202 203 204 208 206 200 197 196 195 195 195 194 196 197 194 192 192 192 192 189 186 189 195 199 200
302 298 293 290 289 286 283 281 281 279 277 272 266 264 265 267 269 270 272 274 282 285 273 251 241 242 242 239 234 224 217 216 217 215 216 216 212 207 206 208 213 211 207 205 202 196 194 190 186 183 185 190 196 204 206 205 201 193 192 194 195 193 191 189 188 189 189 190 189 185 184 188 194 198
305 302 298 294 293 291 287 285 284 282 279 275 268 263 263 266 268 269 270 273 278 282 278 262 247 243 241 239 237 231 222 217 213 208 206 206 206 206 208 211 212 207 202 201 197 191 188 185 181 176 172 175 185 202 208 207 204 196 188 186 188 188 185 182 184 186 187 188 190 188 186 185 189 195
305 302 298 292 290 289 287 285 285 284 282 278 272 265 261 262 265 268 270 273 276 279 277 268 257 251 246 239 235 229 220 211 206 200 198 200 201 203 206 211 211 204 198 197 194 188 186 186 185 185 183 181 194 205 200 196 201 199 192 183 180 181 180 176 176 182 186 188 189 190 189 187 187 193
304 299 296 293 292 292 291 290 289 288 285 281 274 267 261 260 263 268 271 272 274 277 277 271 263 257 249 239 230 223 213 205 200 196 194 194 197 201 205 207 205 198 193 191 189 187 188 189 189 190 190 187 196 204 191 176 188 195 193 187 178 173 174 174 174 179 184 185 188 191 191 189 188 192
308 303 300 299 299 299 298 296 294 292 289 284 275 266 262 262 264 267 268 269 272 275 274 269 263 257 249 235 222 212 203 198 197 194 192 194 197 200 203 203 198 191 186 183 184 187 190 192 194 196 196 197 205 205 192 177 178 184 189 191 186 178 177 178 177 176 177 179 181 182 184 184 184 184
307 304 303 304 304 303 302 300 298 295 291 285 276 266 262 262 263 265 266 267 270 273 270 264 260 257 249 234 220 207 198 198 198 196 194 196 198 201 202 200 192 185 181 180 181 186 193 198 200 201 201 204 208 197 178 164 163 171 180 189 193 188 184 182 179 174 172 174 173 169 169 172 172 170
309 305 305 306 306 306 305 303 303 303 297 287 275 267 264 261 259 261 263 265 267 268 265 259 256 255 250 235 218 206 199 199 201 200 198 198 201 202 201 195 187 182 181 181 185 191 197 200 200 200 201 195 180 164 154 145 145 161 168 177 188 192 190 188 184 178 173 172 169 164 163 168 170 169
312 307 306 306 307 309 309 307 309 313 311 297 278 267 265 264 262 263 265 265 265 263 260 256 254 252 248 235 218 208 203 202 202 202 201 199 198 197 194 189 183 183 185 189 192 191 191 191 191 191 188 177 166 160 159 158 153 156 157 158 169 182 187 189 189 187 183 180 175 168 163 163 165 173
315 310 307 307 308 310 311 312 314 320 323 317 299 280 270 266 266 267 268 268 267 261 256 253 252 248 245 238 224 213 209 207 205 202 199 196 193 189 188 187 186 187 188 185 180 175 172 175 179 179 173 171 172 172 165 155 153 153 153 152 153 158 165 172 179 183 184 186 185 181 176 171 165 175
319 315 312 312 314 314 316 319 320 321 325 329 325 312 295 281 275 273 274 273 268 261 254 250 246 242 239 232 221 213 212 211 206 199 195 193 191 189 187 185 181 180 177 165 155 157 162 165 170 172 171 173 175 167 151 148 151 151 152 152 150 149 151 154 155 157 159 165 171 174 174 172 164 160
322 319 316 317 319 320 320 322 324 325 328 332 333 330 324 314 302 293 289 282 272 262 256 250 244 238 231 220 211 207 205 203 199 193 189 188 186 183 180 174 167 164 163 157 151 151 155 157 162 169 170 170 169 161 153 150 150 149 148 148 147 148 149 149 149 148 146 144 147 155 156 152 156 163